Location: Devargunta
(16.7631°N, 80.9077°E)
Time: 19:55:43
(UTC+00:00)

Centaur D-1AR AC-48 - Pass Details

Date: 19 January 2021
Orbit: 617 x 36172 km, 21.9° (Epoch: 04 March)

Event Time Altitude Azimuth Distance (km) Brightness Sun altitude
Rises 15:13:45 0° 279° (W) 4,931 6.9 -39.5°
Reaches altitude 10° 15:18:01 10° 285° (WNW) 2,809 5.4 -40.5°
Enters shadow 15:19:42 17° 292° (WNW) 1,974 4.5 -40.9°
